Date,TemperatureHighF,TemperatureAvgF,TemperatureLowF,DewpointHighF,DewpointAvgF,DewpointLowF,HumidityHigh,HumidityAvg,HumidityLow,PressureMaxIn,PressureMinIn,WindSpeedMaxMPH,WindSpeedAvgMPH,GustSpeedMaxMPH,PrecipitationSumIn
2013-1-1,31.7,24.5,10.2,28.0,15.5,0.0,87,66,44,29.77,29.52,40,8,40,0.00
2013-1-2,15.5,9.1,3.0,4.0,0.3,-6.0,72,61,48,29.94,29.72,46,12,54,0.00
2013-1-3,18.1,9.6,1.4,8.0,1.2,-6.0,74,63,52,30.04,29.88,30,1,30,0.00
2013-1-4,72.6,28.7,12.8,41.0,19.9,4.0,84,69,25,29.92,29.67,17,2,19,1.04
2013-1-5,33.6,27.1,14.6,28.0,15.7,4.0,81,60,39,30.28,29.65,37,8,37,0.00
2013-1-6,28.1,22.7,13.4,28.0,20.0,4.0,97,87,65,30.25,29.87,11,2,11,0.00
2013-1-7,23.0,16.5,10.4,21.0,11.5,4.0,89,76,58,30.41,29.95,22,5,23,0.00
2013-1-8,40.8,35.5,16.3,32.0,26.8,11.0,82,69,56,30.36,30.14,30,7,30,0.04
2013-1-9,42.9,36.4,28.4,38.0,30.8,23.0,87,79,69,30.43,29.79,28,4,28,0.01
2013-1-10,41.1,37.1,29.6,32.0,26.4,21.0,76,63,51,30.51,29.80,43,12,43,0.01
2013-1-11,34.5,30.3,25.2,26.0,19.4,16.0,73,62,47,30.55,30.27,18,4,20,0.00
2013-1-12,43.1,38.3,32.9,40.0,32.7,24.0,89,79,70,30.32,30.09,13,2,13,0.00
2013-1-13,49.5,44.4,41.3,49.0,43.7,39.0,100,97,89,30.17,29.93,25,3,27,0.00
2013-1-14,53.2,46.9,37.2,51.0,42.3,24.0,100,85,56,30.21,29.84,30,8,30,0.00
2013-1-15,37.2,33.0,29.1,26.0,22.5,16.0,77,63,52,30.34,30.16,17,4,18,0.00
2013-1-16,36.8,32.7,28.6,36.0,28.2,16.0,100,84,54,30.30,29.73,24,6,24,0.34
2013-1-17,40.0,31.8,12.6,40.0,23.6,-6.0,99,72,32,30.12,29.69,28,9,28,0.03
2013-1-18,17.2,10.8,5.3,4.0,-3.2,-6.0,63,48,37,30.38,30.08,30,8,30,0.00
2013-1-19,38.7,30.1,16.3,33.0,24.8,0.0,99,80,44,30.37,29.91,24,3,24,0.09
2013-1-20,48.0,40.7,24.0,41.0,30.9,8.0,95,69,40,29.95,29.43,38,8,38,0.01
2013-1-21,23.7,17.9,12.8,16.0,2.8,0.0,86,46,33,30.03,29.75,30,6,32,0.00
2013-1-22,17.4,11.6,7.0,16.0,2.4,-6.0,90,61,43,29.94,29.73,24,7,24,0.00
2013-1-23,8.5,2.5,-2.4,-6.0,-11.6,-13.0,56,46,35,30.02,29.88,27,8,27,0.00
2013-1-24,9.8,2.8,-3.4,0.0,-10.1,-13.0,61,50,35,30.00,29.77,30,10,30,0.00
2013-1-25,18.9,9.7,1.9,4.0,-1.5,-6.0,66,55,39,30.12,29.96,28,9,28,0.00
2013-1-26,17.2,12.0,7.9,4.0,0.3,-6.0,65,53,39,30.06,29.88,34,10,34,0.00
2013-1-27,21.8,14.4,7.5,8.0,3.1,0.0,65,55,47,30.35,30.00,29,9,29,0.00
2013-1-28,25.2,18.8,10.1,21.0,3.7,0.0,81,49,27,30.39,30.05,17,4,17,0.00
2013-1-29,34.8,27.5,19.3,28.0,18.9,14.0,84,69,55,30.25,30.05,14,2,14,0.00
2013-1-30,55.6,45.5,34.5,55.0,43.9,28.0,99,94,75,30.21,29.47,41,13,42,0.21
2013-1-31,56.4,47.4,32.9,55.0,41.5,16.0,99,81,48,29.51,28.85,50,13,50,0.32
2013-2-1,33.0,24.5,13.6,18.0,8.4,4.0,63,46,37,29.97,29.35,28,9,30,0.00
2013-2-2,24.1,17.7,9.9,21.0,6.2,0.0,81,57,38,30.20,29.93,26,4,26,0.00
2013-2-3,27.8,23.1,20.4,23.0,19.0,16.0,95,84,74,30.09,29.61,20,6,21,0.00
2013-2-4,27.0,20.7,14.3,16.0,9.2,-6.0,84,59,34,29.79,29.50,30,10,30,0.00
2013-2-5,21.7,14.8,9.8,8.0,-2.2,-6.0,56,43,31,30.05,29.74,22,5,22,0.00
2013-2-6,33.6,23.9,15.2,29.0,15.2,0.0,96,68,38,30.21,29.90,29,4,29,0.06
2013-2-7,17.3,9.6,5.9,4.0,-5.2,-13.0,57,44,33,30.61,30.17,28,8,28,0.00
2013-2-8,19.4,12.2,3.9,18.0,7.5,-6.0,94,76,45,30.61,29.89,33,7,33,0.05
2013-2-9,18.3,15.1,11.4,16.0,13.2,11.0,94,87,79,30.00,29.57,51,17,51,0.21
2013-2-10,31.7,22.4,15.6,14.0,8.9,4.0,84,55,37,30.35,29.95,35,12,36,0.00
2013-2-11,44.2,31.1,16.9,44.0,25.5,4.0,100,80,40,30.34,29.55,30,5,30,0.41
2013-2-12,41.0,37.7,33.8,41.0,33.4,29.0,100,84,66,29.74,29.46,19,5,19,0.03
2013-2-13,41.1,36.0,32.1,29.0,26.8,24.0,87,69,52,29.83,29.67,17,4,17,0.00
2013-2-14,37.6,33.1,29.7,28.0,22.5,18.0,81,64,46,30.02,29.69,20,6,20,0.00
2013-2-15,43.0,41.5,35.7,39.0,36.2,32.0,88,81,67,30.04,29.92,26,9,29,0.00
2013-2-16,41.8,32.7,27.5,39.0,31.6,26.0,100,94,82,29.96,29.71,22,8,22,0.00
2013-2-17,27.4,22.9,18.9,28.0,20.6,14.0,97,89,71,29.74,28.89,48,17,48,0.11
2013-2-18,27.8,21.2,15.3,14.0,6.8,4.0,74,50,40,29.88,29.19,39,12,39,0.00
2013-2-19,41.2,31.4,21.0,40.0,16.6,4.0,98,55,33,30.10,29.70,25,6,27,0.06
2013-2-20,44.6,37.3,29.1,45.0,31.0,18.0,100,78,56,29.75,29.36,36,8,36,0.49
2013-2-21,34.2,28.3,23.9,31.0,20.8,14.0,97,72,59,30.09,29.53,30,9,30,0.00
2013-2-22,37.9,31.8,26.2,28.0,22.7,21.0,79,68,48,30.39,30.05,26,6,26,0.00
2013-2-23,32.0,29.7,26.2,28.0,25.4,21.0,90,83,69,30.39,30.05,17,6,18,0.00
2013-2-24,32.7,30.6,28.4,29.0,27.4,23.0,98,86,78,30.09,29.77,24,7,24,0.00
2013-2-25,38.6,28.4,22.6,23.0,17.8,8.0,81,63,26,30.24,29.84,17,5,17,0.00
2013-2-26,43.6,32.1,23.1,26.0,22.0,8.0,88,66,45,30.40,30.19,15,2,15,0.00
2013-2-27,38.4,33.7,27.3,33.0,29.5,26.0,100,84,69,30.31,29.76,34,8,34,0.01
2013-2-28,38.9,36.3,33.1,39.0,36.5,33.0,100,100,97,29.82,29.49,28,9,28,0.63
2013-3-1,34.0,32.1,30.5,35.0,31.9,29.0,100,98,93,29.63,29.47,20,7,20,0.04
2013-3-2,36.5,33.8,31.5,36.0,33.0,31.0,100,96,90,29.62,29.53,24,10,24,0.06
2013-3-3,42.4,36.9,34.3,38.0,35.8,35.0,100,95,76,29.60,29.43,14,5,14,0.03
2013-3-4,35.7,33.8,32.1,35.0,33.4,31.0,100,97,91,29.65,29.39,17,6,18,0.13
2013-3-5,42.7,37.3,34.4,37.0,35.3,33.0,99,91,76,30.16,29.60,21,6,21,0.02
2013-3-6,37.3,34.6,33.1,35.0,30.3,26.0,96,84,71,30.31,30.12,28,9,28,0.01
2013-3-7,37.4,34.2,32.5,28.0,26.9,24.0,79,72,62,30.27,30.06,32,11,32,0.00
2013-3-8,44.9,35.6,30.5,28.0,25.0,23.0,80,66,42,30.23,30.03,28,10,30,0.00
2013-3-9,40.2,33.0,28.2,28.0,25.1,23.0,83,72,54,30.41,30.16,24,7,24,0.00
2013-3-10,34.0,31.0,27.8,31.0,26.2,23.0,88,81,72,30.46,30.28,13,4,16,0.00
2013-3-11,42.7,38.6,33.7,39.0,35.1,31.0,97,86,76,30.36,30.19,18,5,18,0.00
2013-3-12,49.1,44.7,40.1,47.0,42.5,38.0,100,92,81,30.24,29.85,31,10,34,0.27
2013-3-13,48.9,44.6,37.2,49.0,43.9,31.0,100,97,77,29.90,29.60,40,8,40,1.36
2013-3-14,43.0,35.9,26.6,31.0,26.9,18.0,97,70,43,29.73,29.58,19,5,19,0.00
2013-3-15,32.4,23.7,19.4,21.0,14.3,11.0,85,67,40,29.75,29.58,28,10,28,0.00
2013-3-18,32.3,27.5,17.8,11.0,3.5,0.0,49,32,25,30.42,30.27,25,6,25,0.00
2013-3-19,30.0,26.7,25.1,28.0,20.8,8.0,100,79,37,30.32,29.62,32,9,33,0.00
2013-3-20,32.9,26.8,19.3,29.0,22.1,16.0,99,82,67,29.71,29.50,30,7,30,0.00
2013-3-21,37.7,32.3,27.2,29.0,23.2,16.0,93,69,42,29.81,29.56,18,4,18,0.00
2013-3-22,40.1,31.5,23.8,29.0,20.5,14.0,93,64,36,29.61,29.51,20,6,20,0.00
2013-3-23,38.7,32.8,26.2,26.0,21.3,18.0,72,61,45,29.60,29.38,28,9,28,0.00
2013-3-24,42.5,36.9,32.0,31.0,26.0,24.0,75,64,50,29.78,29.52,24,8,24,0.00
2013-3-25,41.2,35.9,28.9,32.0,29.1,26.0,95,76,58,29.78,29.58,18,4,18,0.00
2013-3-26,44.8,37.4,29.5,32.0,27.1,23.0,79,66,46,29.70,29.49,26,8,26,0.00
2013-3-27,38.8,36.3,33.8,38.0,33.7,28.0,97,90,70,29.86,29.62,20,7,21,0.14
2013-3-28,46.9,40.5,35.1,36.0,32.6,29.0,90,74,52,29.96,29.81,17,6,17,0.00
2013-3-29,52.7,44.6,38.7,38.0,33.9,31.0,86,66,47,30.01,29.90,13,4,15,0.00
2013-3-30,51.5,43.0,34.7,33.0,27.3,16.0,81,55,24,30.09,29.95,15,4,15,0.00
2013-3-31,51.0,41.7,35.0,38.0,21.7,14.0,91,47,25,30.16,29.91,22,5,22,0.00
2013-4-1,45.8,41.7,35.7,45.0,39.5,32.0,100,92,72,29.95,29.46,32,8,36,1.15
2013-4-2,36.0,31.8,27.9,32.0,15.2,8.0,87,49,31,29.80,29.59,28,7,28,0.01
2013-4-3,39.9,32.7,28.3,18.0,15.0,11.0,68,47,35,29.97,29.72,31,8,31,0.00
2013-4-4,47.3,37.4,30.0,32.0,16.6,8.0,67,43,20,30.18,29.91,28,8,28,0.00
2013-4-5,48.2,42.8,37.1,35.0,31.4,26.0,77,63,42,29.98,29.64,28,10,30,0.00
2013-4-6,37.5,32.4,28.2,28.0,12.8,4.0,68,43,23,30.36,29.72,37,12,37,0.00
2013-4-7,42.4,35.4,25.7,38.0,22.5,8.0,84,59,38,30.37,29.92,36,8,36,0.01
2013-4-8,54.4,47.0,40.5,41.0,37.2,33.0,91,70,48,30.18,29.87,38,8,38,0.00
2013-4-9,41.0,39.4,36.9,40.0,37.8,32.0,100,93,75,30.20,29.91,18,3,19,0.20
2013-4-10,53.0,44.1,38.5,45.0,41.5,39.0,100,91,70,30.02,29.88,16,3,18,0.05
2013-4-11,47.2,42.0,35.8,44.0,24.8,16.0,94,52,30,30.21,29.85,23,7,23,0.01
2013-4-12,38.2,34.4,31.8,35.0,24.9,16.0,98,69,42,30.31,29.93,23,7,25,0.21
2013-4-13,40.8,36.8,33.2,38.0,35.5,33.0,100,93,85,29.98,29.76,18,5,19,0.14
2013-4-14,44.4,40.2,37.2,42.0,38.6,36.0,100,94,88,30.19,29.90,18,3,19,0.09
2013-4-15,46.2,39.5,35.9,39.0,36.7,35.0,100,89,73,30.48,30.14,19,4,19,0.00
2013-4-16,48.5,43.3,36.6,47.0,39.6,35.0,96,87,68,30.47,29.94,44,9,44,0.23
2013-4-17,55.1,49.2,43.5,47.5,34.1,23.0,95,58,36,30.39,29.91,34,10,37,0.02
2013-4-18,45.7,40.4,33.9,38.0,27.8,18.0,84,61,40,30.53,30.20,23,6,25,0.00
2013-4-19,63.5,55.5,45.7,59.0,51.3,31.0,98,86,51,30.23,29.72,42,11,43,0.00
2013-4-20,58.3,52.3,44.6,58.0,47.1,31.0,100,84,57,30.16,29.61,46,9,46,0.27
2013-4-21,48.4,41.7,35.1,31.0,23.9,18.0,68,49,32,30.73,30.09,25,7,25,0.00
2013-4-22,43.2,38.8,33.1,36.0,27.6,18.0,90,64,44,30.87,30.68,21,5,21,0.00
2013-4-23,41.9,38.4,33.2,42.0,35.5,31.0,99,89,78,30.72,30.23,19,5,19,0.14
2013-4-24,50.3,45.4,41.9,50.5,45.4,42.0,100,100,99,30.25,29.76,16,4,17,1.19
2013-4-25,61.1,51.8,44.5,51.0,43.7,32.0,100,76,42,30.32,29.82,36,7,40,0.10
2013-4-26,51.7,45.2,38.0,37.0,32.3,29.0,83,60,46,30.49,30.28,22,4,22,0.00
2013-4-27,61.0,46.9,34.2,37.0,30.0,26.0,95,55,30,30.50,30.28,16,3,16,0.00
2013-4-28,58.1,46.9,39.0,42.0,38.5,32.0,91,73,51,30.41,30.26,19,4,19,0.00
2013-4-29,63.3,50.6,38.7,40.0,35.3,26.0,95,60,24,30.36,30.24,17,4,18,0.00
2013-4-30,66.6,51.9,38.4,42.0,34.1,24.0,92,56,22,30.42,30.27,17,4,17,0.00
2013-5-1,68.8,51.5,39.2,43.0,35.0,18.0,89,58,22,30.52,30.38,17,3,17,0.00
2013-5-2,56.4,48.1,41.9,43.0,38.1,18.0,90,69,24,30.58,30.43,19,5,19,0.00
2013-5-3,57.1,48.2,40.7,42.0,39.0,37.0,87,71,53,30.61,30.39,18,5,18,0.00
2013-5-4,51.3,45.4,40.0,39.0,35.7,32.0,92,70,48,30.46,30.33,20,5,22,0.00
2013-5-5,60.6,48.8,38.2,43.0,37.4,35.0,95,67,40,30.39,30.25,16,4,16,0.00
2013-5-6,61.4,49.5,41.7,45.0,40.5,36.0,99,73,52,30.35,30.19,19,3,19,0.00
2013-5-7,70.3,52.2,42.8,54.0,46.9,43.0,100,85,45,30.24,30.12,20,3,20,0.00
2013-5-8,64.3,50.1,44.3,53.5,48.6,44.0,100,95,68,30.33,30.18,18,5,18,0.00
2013-5-9,53.6,50.3,47.7,53.5,50.3,47.5,100,100,98,30.22,29.94,15,5,15,0.42
2013-5-10,65.8,52.6,47.5,57.5,51.5,47.5,100,96,73,30.04,29.90,19,3,21,0.00
2013-5-11,62.2,53.4,45.0,59.5,52.3,45.0,100,96,85,30.03,29.74,29,8,29,0.16
2013-5-12,60.4,55.0,49.3,59.5,54.8,47.5,100,99,91,29.78,29.55,24,4,28,0.19
2013-5-13,53.9,49.2,45.3,47.5,37.2,31.0,98,65,41,30.03,29.72,26,7,26,0.02
2013-5-14,57.6,48.4,43.8,38.0,34.5,31.0,73,59,38,30.05,29.92,16,4,17,0.00
2013-5-15,60.9,50.6,40.7,47.0,34.5,26.0,98,58,27,30.05,29.71,30,6,30,0.24
2013-5-16,69.6,56.0,46.4,54.0,48.1,41.0,99,77,40,29.81,29.57,28,6,32,0.02
2013-5-17,57.2,52.1,48.7,45.0,40.5,37.0,82,66,51,30.24,29.76,24,6,25,0.00
2013-5-18,53.1,47.1,41.2,41.0,38.5,36.0,91,72,60,30.41,30.19,23,5,23,0.00
2013-5-19,51.5,47.1,41.2,47.5,42.8,38.0,99,85,62,30.47,30.29,21,6,21,0.00
2013-5-20,54.5,50.3,46.8,54.5,50.1,47.0,100,99,96,30.32,29.96,39,6,39,0.65
2013-5-21,51.1,47.8,46.6,49.0,47.7,47.0,100,99,89,30.15,30.02,18,4,18,0.06
2013-5-22,50.9,48.4,46.7,50.5,48.4,47.0,100,100,97,30.12,29.97,20,6,21,0.52
2013-5-23,65.7,55.1,46.4,63.5,54.6,46.0,100,98,92,30.04,29.84,26,6,28,0.02
2013-5-24,65.0,59.2,51.9,64.5,58.9,52.0,100,99,97,29.91,29.70,38,9,42,0.87
2013-5-25,51.9,50.9,48.2,52.0,51.0,48.0,100,100,99,29.88,29.72,19,6,19,0.56
2013-5-26,50.7,48.4,46.4,50.5,47.8,44.0,100,97,88,29.94,29.64,20,5,20,0.40
2013-5-27,62.4,51.7,44.5,44.0,40.9,36.0,95,69,41,30.21,29.90,26,5,26,0.00
2013-5-28,69.5,55.7,41.4,47.5,39.0,31.0,99,59,29,30.30,30.16,23,4,23,0.00
2013-5-29,54.8,49.5,47.5,52.0,48.7,37.0,100,97,53,30.31,30.00,19,5,20,0.40
2013-5-30,81.3,61.9,48.2,65.0,56.0,48.0,100,84,53,30.08,29.95,12,2,12,0.01
2013-5-31,86.9,73.2,55.8,63.5,60.1,55.0,100,67,39,30.09,29.88,18,4,20,0.00
2013-6-1,90.6,73.4,58.4,64.5,60.3,53.5,90,65,39,29.99,29.81,23,4,23,0.00
2013-6-2,83.9,67.7,55.9,66.7,59.6,53.5,94,76,56,29.87,29.71,33,5,33,0.01
2013-6-3,69.2,63.0,54.2,64.0,59.4,53.5,99,88,70,29.88,29.72,22,5,22,0.04
2013-6-4,65.3,60.4,54.8,60.0,45.5,39.0,97,60,42,30.06,29.76,21,5,21,0.00
2013-6-5,69.6,58.8,51.0,47.5,41.1,37.0,69,53,31,30.19,30.00,19,5,19,0.00
2013-6-6,64.6,58.2,50.2,51.0,44.0,37.0,92,61,39,30.28,30.15,18,3,18,0.00
2013-6-7,57.7,53.6,51.0,53.0,49.0,43.0,99,85,62,30.24,30.03,14,4,15,0.29
2013-6-8,61.3,55.4,51.0,58.0,54.4,51.0,100,97,84,30.08,29.65,19,4,20,2.32
2013-6-9,68.5,57.8,50.7,56.5,53.0,49.0,99,85,64,30.18,29.96,13,3,14,0.00
2013-6-10,69.0,60.5,54.0,56.5,52.4,49.0,100,76,51,30.28,30.07,12,3,12,0.00
2013-6-11,55.7,53.1,50.3,54.0,52.3,50.5,100,97,84,30.13,29.55,27,7,28,0.79
2013-6-12,58.1,54.0,50.2,58.0,53.8,50.0,100,99,93,29.76,29.49,18,5,18,0.84
2013-6-13,70.5,58.4,51.8,54.5,52.1,49.0,100,81,54,29.86,29.71,15,4,15,0.07
2013-6-14,59.0,55.1,51.7,53.0,48.5,42.0,95,79,60,29.80,29.69,14,3,14,0.00
2013-6-15,75.0,63.4,49.6,53.0,46.2,40.0,93,57,30,29.92,29.72,19,4,19,0.00
2013-6-16,75.5,65.6,54.8,55.0,47.8,42.0,91,54,34,29.95,29.75,17,4,19,0.00
2013-6-17,78.0,65.0,54.0,61.0,57.3,53.5,99,78,47,29.89,29.72,20,4,20,0.31
2013-6-18,70.6,63.4,57.9,58.0,52.9,49.0,94,71,48,30.00,29.84,15,3,15,0.00
2013-6-19,72.2,65.5,55.7,50.0,45.8,41.0,78,51,36,30.18,29.96,9,4,9,0.00
2013-6-20,75.4,63.8,50.4,54.0,48.0,43.0,94,60,32,30.29,30.12,9,3,9,0.00
2013-6-21,78.1,66.0,56.6,57.0,52.8,47.0,91,66,39,30.28,30.16,9,4,9,0.00
2013-6-22,74.3,63.5,57.2,62.0,55.6,52.0,90,77,58,30.27,30.11,9,2,9,0.00
2013-6-23,75.4,61.5,56.5,64.0,57.8,54.0,98,89,63,30.20,29.97,9,2,9,0.04
2013-6-24,87.6,74.5,62.5,71.0,65.6,60.0,98,76,52,30.01,29.80,9,3,9,0.04
2013-6-25,88.3,77.3,67.4,68.0,64.1,59.0,99,66,41,29.88,29.71,9,3,9,0.17
2013-6-26,70.7,62.7,57.0,69.0,61.7,56.0,100,98,92,29.95,29.72,9,3,9,0.02
2013-6-27,57.9,53.6,52.0,56.0,53.2,52.0,100,99,93,29.99,29.88,9,5,9,0.00
2013-6-28,66.2,58.7,54.9,66.0,58.4,55.0,100,100,100,29.95,29.62,9,4,9,1.93
2013-6-29,73.2,64.8,58.0,71.0,63.6,57.0,100,97,82,29.79,29.61,9,4,9,0.03
2013-6-30,74.7,67.4,59.0,69.0,64.6,57.0,100,92,79,30.01,29.72,9,4,9,0.00
2013-7-1,72.5,62.9,55.9,66.0,60.4,56.0,100,93,77,30.18,29.95,9,2,9,0.01
2013-7-2,65.9,58.8,56.9,66.0,58.4,56.0,100,99,95,30.29,30.13,9,3,9,0.45
2013-7-3,78.5,63.7,57.1,67.0,59.9,57.0,100,89,61,30.25,30.11,9,2,9,0.00
2013-7-4,90.4,76.8,63.1,71.0,67.1,62.0,100,75,48,30.20,30.05,9,3,9,0.00
2013-7-5,91.3,80.6,66.0,72.0,68.9,63.0,94,70,48,30.14,29.98,9,4,9,0.00
2013-7-6,88.5,80.2,70.8,72.0,68.6,63.0,90,69,54,30.05,29.88,9,3,9,0.00
2013-7-7,90.3,81.0,70.8,66.0,63.9,61.0,74,57,40,29.99,29.85,9,4,9,0.00
2013-7-8,78.6,68.5,60.9,66.0,60.1,53.0,90,76,53,30.15,29.90,9,3,9,0.01
2013-7-9,63.9,61.3,59.5,62.0,59.2,54.0,100,94,76,30.21,30.10,9,3,9,0.01
2013-7-10,67.0,59.7,57.9,67.0,59.2,57.0,100,99,94,30.18,29.82,9,5,9,0.01
2013-7-11,76.1,69.4,60.4,72.0,66.9,60.0,100,93,78,30.01,29.78,9,2,9,0.03
2013-7-12,76.4,70.2,62.8,66.0,58.8,57.0,86,69,54,30.22,29.96,9,4,9,0.00
2013-7-13,83.3,75.0,65.9,60.0,56.6,53.0,73,54,40,30.38,30.19,9,3,9,0.00
2013-7-14,89.5,75.6,59.6,66.0,61.4,56.0,92,64,45,30.34,30.16,9,3,9,0.00
2013-7-15,92.3,83.7,72.1,69.0,65.6,61.0,78,56,37,30.22,30.03,9,3,9,0.00
2013-7-16,89.0,77.2,68.8,68.0,62.2,54.0,71,61,46,30.25,30.06,9,4,9,0.00
2013-7-17,80.0,72.2,63.7,67.0,60.0,53.0,95,66,55,30.26,29.89,9,4,9,0.18
2013-7-18,85.4,75.1,68.7,69.0,63.0,47.0,99,70,38,30.06,29.90,9,4,9,0.01
2013-7-19,87.0,75.7,63.5,73.0,67.6,61.0,99,78,58,30.03,29.62,9,4,9,0.02
2013-7-20,90.1,80.1,69.0,72.0,67.4,63.0,94,67,48,29.82,29.58,9,4,9,0.26
2013-7-21,77.0,67.9,60.8,63.0,55.5,53.0,82,66,49,30.11,29.78,9,3,9,0.00
2013-7-22,69.9,63.2,56.7,59.0,56.1,53.0,95,80,59,30.14,29.98,9,3,9,0.00
2013-7-23,65.0,61.0,58.9,65.0,60.5,57.0,100,99,93,30.03,29.55,9,3,9,1.34
2013-7-24,81.3,68.2,61.0,69.0,63.5,53.0,100,86,66,30.01,29.56,9,3,9,0.00
2013-7-25,72.7,63.2,56.0,60.0,53.7,50.0,93,73,52,30.20,29.97,9,4,9,0.00
2013-7-26,65.4,63.4,61.7,65.0,62.9,60.0,100,99,91,30.16,29.84,9,2,9,2.31
2013-7-27,79.9,69.2,60.1,65.0,62.4,59.0,100,81,60,30.12,29.83,9,4,9,0.05
2013-7-28,69.7,63.2,57.6,66.0,61.1,56.0,100,94,79,30.16,30.03,9,3,9,0.33
2013-7-29,69.0,63.2,59.9,65.0,61.6,59.0,100,96,87,30.15,30.01,9,3,9,0.00
2013-7-30,78.8,67.5,60.0,68.0,61.7,57.0,100,84,51,30.12,29.98,9,2,9,0.00
2013-7-31,79.5,70.2,60.8,60.0,56.2,53.0,85,63,47,30.16,30.02,9,3,9,0.00
2013-8-1,74.1,65.5,59.2,64.0,59.8,55.0,96,84,61,30.12,29.96,17,4,17,0.00
2013-8-2,67.6,63.8,59.5,67.0,63.1,59.0,100,99,96,29.99,29.80,15,3,15,0.58
2013-8-3,74.7,63.4,55.2,66.0,59.9,55.0,100,91,65,29.90,29.72,18,2,18,0.04
2013-8-4,78.7,67.8,61.2,60.0,58.1,56.0,89,73,48,29.85,29.70,14,3,14,0.00
2013-8-5,70.9,63.4,57.0,56.0,53.0,47.0,87,70,53,30.04,29.79,19,5,19,0.00
2013-8-6,77.3,66.5,55.2,55.0,50.1,47.0,79,57,42,30.22,30.00,19,4,19,0.00
2013-8-7,76.1,65.4,55.9,59.0,52.4,44.0,90,66,40,30.28,30.16,16,3,16,0.00
2013-8-8,67.8,62.8,59.2,66.0,60.7,56.0,99,94,87,30.23,30.06,15,4,15,0.19
2013-8-9,70.7,67.6,62.9,70.0,66.7,62.0,100,98,93,30.12,29.69,38,6,38,1.73
2013-8-10,80.0,71.6,62.7,70.0,59.2,49.0,100,69,36,30.02,29.69,18,4,19,0.01
2013-8-11,77.5,67.2,58.2,53.0,51.7,48.0,78,59,42,30.08,29.96,18,5,18,0.00
2013-8-12,79.8,68.7,58.7,59.0,55.5,53.0,91,65,43,30.05,29.90,16,3,17,0.00
2013-8-13,74.7,62.4,57.6,66.0,59.7,56.0,100,93,69,29.98,29.74,14,3,14,0.00
2013-8-14,73.5,63.3,58.3,65.0,59.1,48.0,100,88,62,29.87,29.61,20,4,20,0.00
2013-8-15,76.0,65.4,56.2,53.0,51.0,49.0,81,62,42,30.14,29.83,18,5,18,0.00
2013-8-16,75.7,64.9,55.3,58.0,54.3,50.0,99,72,45,30.26,30.07,16,2,16,0.00
2013-8-17,78.6,65.7,54.8,60.0,55.1,50.0,100,72,43,30.33,30.20,15,3,15,0.00
2013-8-18,77.6,66.8,57.6,60.0,55.6,50.0,89,69,47,30.34,30.05,15,3,15,0.00
2013-8-19,82.8,71.8,58.8,64.0,60.7,57.0,97,70,51,30.09,29.85,15,3,15,0.00
2013-8-20,83.4,74.2,66.5,65.0,61.9,58.0,85,67,50,30.12,29.93,12,3,12,0.00
2013-8-21,86.3,76.0,63.4,64.0,60.8,57.0,84,60,46,30.18,30.00,17,4,17,0.00
2013-8-22,84.9,74.9,60.8,68.0,62.8,58.0,94,68,46,30.05,29.75,18,4,19,0.00
2013-8-23,74.6,67.2,58.4,67.0,57.9,50.0,92,74,49,30.19,29.74,17,5,17,0.00
2013-8-24,75.2,64.1,52.7,53.0,49.0,45.0,85,61,36,30.36,30.15,13,3,13,0.00
2013-8-25,78.7,65.4,54.0,56.0,51.3,46.0,94,64,34,30.41,30.18,13,3,13,0.00
2013-8-26,75.1,65.7,59.6,64.0,57.8,47.0,91,77,49,30.22,29.87,17,2,17,0.03
2013-8-27,80.7,67.8,59.8,66.0,62.2,58.0,98,84,61,29.98,29.85,14,2,14,0.00
2013-8-28,71.1,62.5,57.7,65.0,60.5,57.0,100,94,78,30.07,29.90,17,4,17,0.02
2013-8-29,65.6,61.5,56.6,63.0,57.6,54.0,98,88,73,30.19,30.02,15,4,16,0.08
2013-8-30,72.2,61.5,52.1,62.0,56.1,51.0,99,84,66,30.07,29.80,13,3,13,0.00
2013-8-31,71.1,64.5,60.4,66.0,62.6,59.0,100,95,80,29.92,29.78,19,4,19,0.16
2013-9-1,79.1,67.8,61.0,71.0,65.3,61.0,100,93,69,30.02,29.78,13,3,13,0.04
2013-9-2,63.5,61.4,59.8,63.0,61.0,59.0,100,100,100,30.06,29.78,17,4,17,2.21
2013-9-3,75.6,65.5,60.8,70.0,64.4,60.0,100,98,81,29.84,29.72,12,2,12,1.07
2013-9-4,78.1,69.2,61.8,66.0,61.1,56.0,100,79,49,29.94,29.74,11,2,15,0.00
2013-9-5,64.6,59.1,51.0,58.0,50.7,40.0,99,76,41,30.17,29.88,14,2,14,0.45
2013-9-6,66.6,56.9,45.6,49.0,42.5,37.0,89,61,37,30.26,30.05,16,3,16,0.00
2013-9-7,71.9,64.6,57.4,57.0,50.8,47.0,82,63,43,30.11,29.80,15,4,15,0.00
2013-9-8,64.3,58.7,49.2,59.0,51.3,41.0,98,78,55,30.08,29.69,23,5,26,0.27
2013-9-9,64.4,55.5,45.6,53.0,42.8,38.0,80,64,44,30.24,30.03,18,4,18,0.00
2013-9-10,65.7,61.3,57.3,60.0,56.2,51.0,100,84,75,30.19,30.07,20,5,20,0.00
2013-9-11,81.1,69.2,56.9,72.0,64.1,57.0,100,85,69,30.13,29.90,22,3,24,0.00
2013-9-12,77.0,68.5,62.3,70.0,65.6,59.0,99,92,71,30.06,29.69,26,5,28,0.26
2013-9-13,66.9,63.1,59.0,66.0,62.6,59.0,100,100,98,29.75,29.60,20,2,26,0.32
2013-9-14,69.9,61.9,55.9,60.0,57.6,54.0,100,87,68,30.06,29.68,14,3,14,0.01
2013-9-15,66.5,59.1,51.9,54.0,50.4,47.0,97,75,53,30.18,30.00,15,3,16,0.00
2013-9-16,63.4,56.2,45.6,56.0,50.7,35.0,97,83,66,30.28,29.96,24,4,24,0.00
2013-9-17,63.2,51.7,41.2,47.0,41.5,35.0,85,69,49,30.42,30.24,13,4,15,0.00
2013-9-18,70.5,59.9,47.6,49.0,44.9,41.0,91,60,36,30.34,30.08,22,4,22,0.00
2013-9-19,76.5,63.0,51.2,53.0,48.6,43.0,92,61,40,30.17,30.00,18,3,18,0.00
2013-9-20,72.5,61.1,52.4,54.0,51.7,44.0,95,74,48,30.17,30.03,17,4,17,0.00
2013-9-21,66.3,58.9,54.4,60.0,56.8,54.0,100,94,77,30.12,29.85,28,6,28,0.00
2013-9-22,66.4,62.6,56.1,64.0,60.4,51.0,99,94,79,29.90,29.63,34,9,34,1.03
2013-9-23,56.1,51.7,47.0,51.0,44.0,41.0,88,76,64,29.93,29.71,21,6,22,0.00
2013-9-24,51.6,49.9,46.3,47.0,43.6,41.0,93,79,70,29.92,29.79,18,4,18,0.05
2013-9-25,59.8,53.0,49.5,49.0,47.0,45.0,89,80,65,30.01,29.82,18,6,18,0.01
2013-9-26,60.7,54.4,49.0,52.0,49.0,47.0,92,83,68,30.17,29.96,21,6,21,0.00
2013-9-27,70.1,59.3,52.7,54.0,52.0,50.0,96,79,51,30.30,30.13,11,3,11,0.00
2013-9-28,68.5,56.6,48.3,54.0,50.9,47.0,100,83,57,30.41,30.25,11,2,11,0.00
2013-9-29,69.2,55.3,45.1,54.0,48.2,43.0,98,80,44,30.34,30.14,10,2,10,0.00
2013-9-30,59.8,53.1,47.9,53.0,51.0,48.0,100,93,75,30.20,29.97,11,2,11,0.00
2013-10-1,73.8,59.4,52.8,57.0,52.0,48.0,99,80,41,30.03,29.79,13,2,13,0.00
2013-10-2,77.0,64.4,52.3,60.0,55.0,48.0,100,75,51,29.92,29.71,15,3,15,0.00
2013-10-3,73.1,65.1,57.5,49.0,46.0,41.0,65,50,38,30.12,29.87,22,4,22,0.00
2013-10-4,70.1,60.2,51.8,50.0,45.8,41.0,85,60,41,30.16,30.02,10,2,10,0.00
2013-10-5,61.7,54.6,48.2,47.0,43.3,39.0,84,67,48,30.23,30.09,10,2,10,0.00
2013-10-6,55.7,50.9,46.3,48.0,38.2,33.0,92,62,47,30.37,30.18,15,4,15,0.04
2013-10-7,62.8,56.4,47.3,62.0,54.9,45.0,100,96,89,30.32,29.84,34,10,38,0.11
2013-10-8,64.4,56.4,46.7,64.0,46.7,37.0,100,72,50,30.45,29.83,33,5,33,0.31
2013-10-9,61.3,50.1,41.8,43.0,39.6,37.0,90,69,46,30.56,30.38,14,2,14,0.00
2013-10-10,64.4,52.4,44.3,48.0,44.1,39.0,94,75,46,30.43,30.21,10,2,10,0.00
2013-10-11,72.1,55.1,46.0,53.0,48.6,41.0,95,81,49,30.29,30.14,17,2,18,0.00
2013-10-12,56.6,51.4,43.7,53.0,46.4,41.0,96,84,63,30.50,30.24,14,4,14,0.00
2013-10-13,55.5,48.9,42.1,48.0,42.9,40.0,99,81,60,30.54,30.39,14,3,14,0.00
2013-10-14,61.2,53.5,46.6,48.0,44.5,41.0,86,73,53,30.45,30.26,12,3,12,0.00
2013-10-15,64.1,55.6,50.9,53.0,50.3,47.0,96,83,62,30.36,30.24,14,2,14,0.00
2013-10-16,55.8,53.7,51.2,55.0,53.1,50.0,100,98,92,30.30,29.90,16,3,17,0.16
2013-10-17,61.6,54.8,51.0,56.0,53.9,51.0,100,97,83,29.96,29.78,15,2,15,0.00
2013-10-18,63.8,56.5,50.3,62.0,52.2,45.0,100,87,66,29.86,29.58,22,5,22,0.22
2013-10-19,62.3,55.0,49.1,50.0,43.2,39.0,87,66,44,29.99,29.80,16,4,16,0.00
2013-10-20,62.7,55.7,50.0,55.0,43.6,31.0,99,68,36,29.98,29.68,18,5,18,0.01
2013-10-21,60.1,51.5,45.0,47.0,37.4,32.0,82,59,39,30.12,29.92,22,4,22,0.00
2013-10-22,58.1,55.1,48.5,54.0,50.2,43.0,94,84,75,30.08,29.71,30,6,30,0.01
2013-10-23,52.9,46.7,40.9,43.0,37.0,29.0,93,70,45,29.83,29.58,13,2,13,0.00
2013-10-24,48.4,44.9,38.9,39.0,31.1,24.0,79,59,39,29.82,29.57,20,4,20,0.00
2013-10-25,51.4,44.3,39.2,35.0,32.0,29.0,79,62,46,30.09,29.78,19,5,19,0.00
2013-10-26,50.1,44.4,35.9,41.0,34.0,24.0,92,68,42,30.17,29.90,24,5,24,0.06
2013-10-27,53.8,46.7,41.3,43.0,38.9,31.0,96,76,58,30.01,29.79,17,4,17,0.06
2013-10-28,54.7,44.9,36.0,40.0,32.6,28.0,75,61,47,30.36,29.99,30,6,31,0.00
2013-10-29,47.1,37.4,30.2,29.0,25.6,21.0,81,63,34,30.51,30.31,16,3,16,0.00
2013-10-30,48.5,39.3,32.7,36.0,29.5,23.0,95,70,37,30.40,30.16,13,2,13,0.00
2013-10-31,59.0,45.9,31.5,57.0,40.7,28.0,98,83,60,30.32,29.82,32,7,32,0.35
2013-11-1,64.4,61.4,58.0,62.0,57.8,53.0,97,89,73,29.87,29.39,48,13,48,0.84
2013-11-2,62.4,55.8,48.5,54.0,46.8,42.0,85,73,51,29.81,29.52,21,4,21,0.00
2013-11-3,48.4,37.9,32.9,42.0,25.5,18.0,89,60,41,30.42,29.76,25,9,25,0.03
2013-11-4,40.1,35.0,30.2,24.0,21.6,18.0,66,56,43,30.76,30.36,20,7,21,0.00
2013-11-5,45.1,38.7,28.7,36.0,30.8,23.0,88,72,58,30.78,30.52,16,2,16,0.00
2013-11-6,52.9,47.9,39.0,49.0,42.2,35.0,88,81,75,30.58,30.00,29,5,29,0.00
2013-11-7,59.2,52.8,39.5,56.0,49.3,33.0,97,88,75,30.06,29.63,32,9,32,0.21
2013-11-8,43.4,38.8,35.4,35.0,27.2,24.0,79,62,48,29.95,29.71,21,5,21,0.00
2013-11-9,41.2,37.3,31.9,26.0,23.8,21.0,69,57,43,30.16,29.90,22,6,22,0.00
2013-11-10,48.2,40.9,32.6,44.0,36.6,24.0,98,85,65,30.13,29.67,28,4,28,0.08
2013-11-11,46.7,40.2,36.7,39.0,33.4,29.0,97,76,58,30.02,29.69,24,5,24,0.00
2013-11-12,47.2,34.7,26.9,39.0,23.6,16.0,82,63,55,30.08,29.82,27,8,27,0.00
2013-11-13,27.9,26.4,24.8,18.0,16.5,16.0,69,65,62,30.19,30.01,24,7,24,0.04
2013-11-21,68.0,67.9,67.9,38.0,38.0,38.0,33,33,33,30.52,30.51,2,0,1,0.01
2013-11-22,71.4,49.1,38.3,43.0,30.4,26.0,64,50,25,30.11,30.02,2,0,2,0.02
2013-11-23,38.9,32.1,27.2,21.0,16.7,14.0,66,52,39,29.77,29.64,16,3,16,0.09
2013-11-24,27.3,22.0,18.5,18.0,8.7,4.0,68,53,42,29.96,29.61,20,3,26,0.10
2013-11-25,27.5,20.1,14.9,16.0,5.5,0.0,77,49,29,30.37,29.91,11,1,11,0.02
2013-11-26,33.9,29.5,20.8,32.0,25.8,14.0,96,85,63,30.39,30.21,6,0,6,0.06
2013-11-27,57.0,49.2,32.1,57.0,49.0,31.0,100,99,96,30.28,29.17,15,2,16,2.55
2013-11-28,40.9,29.7,19.0,41.0,21.7,8.0,99,72,46,30.42,29.28,12,2,12,0.04
2013-11-29,24.2,18.3,11.1,14.0,10.5,8.0,88,68,49,30.77,30.36,4,0,7,0.00
2013-11-30,32.6,17.3,6.2,29.0,13.5,8.0,96,81,50,30.86,30.45,6,0,6,0.00
2013-12-1,39.1,35.4,32.7,39.0,34.6,28.0,100,95,77,30.52,30.16,8,0,8,0.22
2013-12-2,42.8,38.3,33.5,43.0,38.5,33.0,100,100,98,30.19,29.96,9,1,9,0.20
2013-12-3,39.3,37.0,34.7,39.0,36.9,33.0,100,99,93,30.03,29.82,10,1,10,0.01
2013-12-4,42.0,33.5,24.3,33.0,29.1,24.0,98,83,64,30.27,29.84,12,1,12,0.00
2013-12-5,49.0,34.9,20.9,49.0,34.6,21.0,100,98,91,30.37,29.97,4,0,4,0.05
2013-12-6,49.4,43.1,35.5,49.0,42.7,32.0,100,98,88,30.16,29.88,6,0,6,0.14
2013-12-7,35.4,30.8,23.0,32.0,21.4,11.0,98,67,48,30.43,30.08,10,1,10,0.01
2013-12-8,25.6,20.5,12.9,18.0,10.9,8.0,92,64,45,30.65,30.38,11,1,11,0.00
2013-12-9,33.9,25.5,19.3,35.0,20.2,8.0,100,80,50,30.65,29.84,11,2,11,0.00
2013-12-10,33.8,28.5,18.4,35.0,26.9,14.0,100,93,71,29.94,29.74,8,0,8,0.00
2013-12-11,27.7,19.2,7.1,18.0,14.2,4.0,96,78,58,30.16,29.89,8,0,8,0.00
2013-12-12,13.4,9.1,1.5,11.0,3.2,-6.0,95,72,45,30.28,29.98,8,0,9,0.00
2013-12-13,22.8,14.4,2.0,14.0,4.5,-6.0,86,60,39,30.42,29.87,11,1,11,0.00
2013-12-14,10.3,3.7,-4.3,0.0,-4.8,-13.0,73,60,43,30.69,30.37,5,0,6,0.00
2013-12-15,24.8,14.5,8.3,26.0,14.0,0.0,97,92,58,30.50,29.34,9,1,10,0.00
2013-12-16,21.1,11.4,1.3,18.0,6.3,-6.0,96,76,45,30.25,29.62,12,1,12,0.00
2013-12-17,13.8,3.8,-14.3,11.0,-0.6,-13.0,93,76,64,30.38,30.06,4,0,4,0.00
2013-12-18,32.7,16.0,2.3,32.0,15.7,4.0,97,93,87,30.11,29.81,6,0,6,1.58
2013-12-19,32.2,23.6,1.4,29.0,22.1,4.0,97,91,83,30.16,29.94,7,1,7,0.00
2013-12-20,33.9,29.1,20.1,35.0,28.9,18.0,100,97,93,30.24,29.96,5,0,5,0.08
2013-12-21,33.1,30.8,27.3,33.0,30.9,28.0,100,100,100,30.07,29.88,8,1,8,0.03
2013-12-22,32.1,31.1,29.4,32.0,31.3,29.0,100,100,100,30.11,29.93,12,1,13,0.00
2013-12-23,32.4,31.0,27.8,32.0,31.1,28.0,100,100,100,30.20,30.00,5,0,5,0.02
2013-12-24,32.1,22.4,9.8,32.0,21.5,8.0,100,95,91,30.22,30.06,0,0,0,0.00
2013-12-25,16.6,8.5,-0.8,16.0,7.2,0.0,93,90,88,30.62,30.14,0,0,0,0.00
2013-12-26,27.9,17.1,-0.8,28.0,17.9,0.0,100,96,91,30.60,30.06,0,0,0,0.00
2013-12-27,28.4,19.7,6.6,28.0,19.8,8.0,99,96,93,30.25,30.08,0,0,4,0.00
2013-12-28,33.8,23.1,7.7,35.0,23.6,8.0,100,98,95,30.23,29.96,5,0,5,0.00
2013-12-29,34.0,31.0,24.9,35.0,31.2,26.0,100,100,100,30.13,29.53,9,0,9,0.00
2013-12-30,31.9,18.8,2.8,32.0,18.2,0.0,100,94,83,30.23,29.49,12,0,13,0.00
2013-12-31,8.1,1.5,-6.5,4.0,0.5,-6.0,90,86,76,30.25,30.02,0,0,0,0.00
2014-1-1,18.8,3.2,-10.0,16.0,2.7,-6.0,93,85,74,30.50,30.11,0,0,0,0.00
2014-1-2,0.0,-5.0,-7.3,-6.0,-7.7,-13.0,88,81,73,30.57,30.03,0,0,0,0.00